Regional Weather Roundup
Issued by NWS Northern Indiana

Home | Current Version | Previous Version | Graphics & Text | Print | Product List | Glossary On
Versions: 1 2 3 4 5 6 7 8 9 10 11 12 13 14 15 16 17 18 19 20 21 22 23 24 25 26 27 28 29 30 31 32 33 34 35 36 37 38 39 40 41 42 43 44 45 46 47 48 49 50
000
ASUS43 KIWX 252100
RWRIWX

KIWX WEATHER ROUNDUP
NATIONAL WEATHER SERVICE NORTHERN INDIANA
400 PM EST TUE NOV 25 2014

NOTE: "FAIR" INDICATES FEW OR NO CLOUDS BELOW 12,000 FEET WITH NO
SIGNIFICANT WEATHER AND/OR OBSTRUCTIONS TO VISIBILITY.

* THESE STATIONS ARE NOT UNDER NWS QUALITY CONTROL. THEY ALSO MAY NOT
  REPORT WEATHER SUCH AS PRECIPITATION OR FOG.

INZ001>027-252200-
NORTHERN INDIANA

CITY           SKY/WX    TMP DP  RH WIND       PRES   REMARKS
GARY*          PTSUNNY   28  19  69 SW16      30.15R WCI  17
SOUTH BEND     CLOUDY    28  20  71 SW8       30.13R WCI  20
ELKHART*       CLOUDY    28  18  64 W7        30.13S WCI  21
GOSHEN         CLOUDY    27  19  72 W9        30.13R WCI  18
ANGOLA*        CLOUDY    27  19  74 W6        30.10R WCI  20
FORT WAYNE     CLOUDY    28  20  71 W12       30.14R WCI  18
PERU/GRISSOM   CLOUDY    26  25  93 W15       30.14R WCI  14

$$
INZ028>050-252200-
CENTRAL INDIANA

CITY           SKY/WX    TMP DP  RH WIND       PRES   REMARKS
LAFAYETTE      CLOUDY    26  20  77 W8        30.16R WCI  18
KOKOMO*        CLOUDY    27  21  80 W15       30.15R WCI  15
MUNCIE*        CLOUDY    30  24  78 W10       30.14R WCI  21
INDIANAPOLIS   CLOUDY    30  23  75 W6        30.15R WCI  24

$$
MIZ043>046-050>051-056>058-064>065-071>073-077>080-252200-
SOUTHWEST LOWER MICHIGAN

CITY           SKY/WX    TMP DP  RH WIND       PRES   REMARKS
BATTLE CREEK   CLOUDY    30  20  66 W13       30.09R WCI  20
BENTON HARBOR  CLOUDY    28  20  71 W13       30.12R WCI  17
COLDWATER*     CLOUDY    29  23  79 W10       30.10R WCI  19
HILLSDALE*     CLOUDY    28  23  81 W10       30.09R WCI  18
HOLLAND        CLOUDY    31  22  69 W13       30.10R WCI  21
GRAND RAPIDS   CLOUDY    30  22  72 W14       30.07R WCI  19
KALAMAZOO      CLOUDY    29  21  72 W13       30.10R WCI  19
STURGIS*       CLOUDY    27  21  80 CALM      30.10S
THREE RIVERS*  CLOUDY    28  23  80 W7        30.12R WCI  21

$$
OHZ001>008-015>018-024>025-252200-
NORTHWEST OHIO

CITY           SKY/WX    TMP DP  RH WIND       PRES   REMARKS
FINDLAY        CLOUDY    32  24  72 W17       30.12R WCI  21
TOLEDO EXPRESS CLOUDY    31  20  63 W12       30.12R WCI  22
TOLEDO METCALF CLOUDY    32  21  64 W9        30.13R WCI  24
LIMA           CLOUDY    31  24  75 W12       30.12R WCI  22

$$
AND FOR LAKE MICHIGAN COASTAL AND OPEN LAKE BUOY OBSERVATIONS

STATION/POSITION TEMP    WIND        PRES    VSBY  WAVE
                 AIR SEA DIR/SP/G                  HT/PER
                 (F)     (DEG/KT/KT) (MB)    (MI)  (FT/S)
CALUMET HARBOR    26     220/  9/ 13 1019.2R
MICHIGAN CITY     27     190/ 13/ 16   N/A
SAINT JOSEPH      30     210/ 11/ 19 1020.7R
SOUTH LAKE BUOY   27 42  260/ 10/ 16 1019.4R         4/ 6

$$
&&



USA.gov is the U.S. government's official web portal to all federal, state and local government web resources and services.